Regional Weather Roundup
Issued by NWS Sterling, VA

Home | Current Version | Previous Version | Text Only | Print | Product List | Glossary On
Versions: 1 2 3 4 5 6 7 8 9 10 11 12 13 14 15 16 17 18 19 20 21 22 23 24 25 26 27 28 29 30 31 32 33 34 35 36 37 38 39 40 41 42 43 44 45 46 47 48 49 50
688
ASUS41 KLWX 241810
RWRLWX

REGIONAL WEATHER ROUNDUP
NATIONAL WEATHER SERVICE BALTIMORE MD/WASHINGTON DC
200 PM EDT SUN JUL 24 2016

Note: "FAIR" indicates few or no clouds below 12,000 feet
with no significant weather and/or obstructions to visibility.
 TC=TEMPERATURE CELSIUS

 * =Non NWS site. Station does not report precipitation (e.g. rain,
    snow, etc.), thunder, or fog.

DCZ001-MDZ009-015-VAZ040>042-051-053>054-241900-
WASHINGTON METRO

CITY           SKY/WX    TMP DP  RH WIND       PRES   REMARKS
WASHINGTON NAT PTSUNNY   94  65  38 S6        29.99F HX  96
DULLES         PTSUNNY   95  63  34 SW8       30.00F HX  96
ANDREWS AFB    MOSUNNY   90  67  46 E6        30.00F HX  93
FT BELVOIR     FAIR      95  63  34 VRB5      29.98F HX  96
QUANTICO       FAIR      92  68  45 S3        30.00F HX  96
COLLEGE PARK*  FAIR      90  63  40 NE3       29.99F HX  90
LEESBURG*      FAIR      97  68  38 SW6       30.01F HX 101
MANASSAS*      SUNNY     93  63  36 CALM      30.00F HX  94
GAITHERSBURG*  SUNNY     91  66  43 SE8       30.04F HX  94

$$

MDZ006>007-011-014-241900-
BALTIMORE METRO

CITY           SKY/WX    TMP DP  RH WIND       PRES   REMARKS
BWI AIRPORT    PTSUNNY   91  61  36 SE6       29.99F HX  91
MD SCIENCE CTR   N/A     94  59  31 MISG      29.99F HX  93
MARTIN STATE   PTSUNNY   90  70  51 SE6       30.01F HX  95
ANNAPOLIS      MOSUNNY   88  70  55 SE7       29.99F HX  93
FORT MEADE*    MOSUNNY   90  66  45 S5        30.02F HX  92

$$

MDZ012-015-019>023-241900-
MARYLAND EASTERN SHORE

CITY           SKY/WX    TMP DP  RH WIND       PRES   REMARKS
OCEAN CITY     CLOUDY    82  74  76 E6        30.01S
SALISBURY      PTSUNNY   91  66  43 VRB5      29.99F HX  93
BAY BRIDGE AP* MOSUNNY   86  72  62 NW7       30.00F HX  92
CAMBRIDGE*     MOSUNNY   91  66  43 S3        29.99F HX  94
EASTON*        SUNNY     93  73  52 E3        30.03F HX 102

$$

MDZ017>025-241900-
SOUTHERN MARYLAND

CITY           SKY/WX    TMP DP  RH WIND       PRES   REMARKS
PATUXENT RIVER CLOUDY    92  64  39 E6        29.99F HX  93
ST INIGOES     MOSUNNY   95  68  41 SE7       29.98F HX  99
LEONARDTOWN*   MOSUNNY   93  59  31 E7        30.01F HX  92

$$

MDZ003>005-241900-
NORTH CENTRAL MARYLAND

CITY           SKY/WX    TMP DP  RH WIND       PRES   REMARKS
FREDERICK*     SUNNY     93  63  36 W5        30.03F HX  94
HAGERSTOWN APT SUNNY     92  62  36 CALM      30.01F HX  92

$$

MDZ501>502-241900-
WESTERN MARYLAND

CITY           SKY/WX    TMP DP  RH WIND       PRES   REMARKS
OAKLAND*       SUNNY     81  66  61 SW6       30.15F
CUMBERLAND*    MOSUNNY   91  70  49 SE6       30.03F HX  97

$$

VAZ025>031-241900-
SHENANDOAH VALLEY

CITY           SKY/WX    TMP DP  RH WIND       PRES   REMARKS
WINCHESTER*    FAIR      95  63  34 SW9       30.01F HX  96
FRONT ROYAL*   FAIR      91  68  46 S3        30.02F HX  95
LURAY*         FAIR      90  72  55 CALM      30.03F HX  96
NEW MARKET*    FAIR     N/A N/A N/A CALM      30.01F
STAUNTON*      FAIR      90  73  57 SE6       30.07F HX  98
WAYNESBORO*    MOCLDY    89  72  58 E3        30.07F HX  96

$$

WVZ021-048>050-054>055-241900-
EASTERN WEST VIRGINIA PANHANDLE

CITY           SKY/WX    TMP DP  RH WIND       PRES   REMARKS
MARTINSBURG    FAIR      92  63  38 VRB3G17   30.00F HX  93
PETERSBURG*    FAIR      96  70  41 SW8       30.00F HX 102

$$

VAZ036>039-050-241900-
CENTRAL FOOTHILLS

CITY           SKY/WX    TMP DP  RH WIND       PRES   REMARKS
CHARLOTTESVILL FAIR      96  68  39 S5        30.02F HX 101
CULPEPER*      FAIR      94  70  45 CALM      30.01F HX 100
ORANGE*        NOT AVBL
GORDONSVILLE*  FAIR      93  67  42 CALM      30.01F HX  96
WARRENTON*     FAIR      96  53  23 SE3       30.01F HX  93

$$

VAZ055>057-241900-
NORTH AND CENTRAL PIEDMONT

CITY           SKY/WX    TMP DP  RH WIND       PRES   REMARKS
FREDERICKSBRG*   N/A     95  67  40 S7        29.98F HX  99
STAFFORD*      FAIR      95  62  33 E5        30.04F HX  95

$$

NCZ024-NYZ072-PAZ021-071-VAZ022-071-241900-
OTHER REGIONAL OBSERVATIONS

CITY           SKY/WX    TMP DP  RH WIND       PRES   REMARKS
NEW YORK CITY  MOSUNNY   92  60  34 SW6       29.98F HX  91
PHILADELPHIA   PTSUNNY   92  59  33 S10       29.99F HX  91
ROANOKE        FAIR      94  66  39 VRB3      30.07F HX  97
RICHMOND       FAIR      93  75  55 S9        29.99S HX 104
RALEIGH        PTSUNNY   94  74  52 W5        30.03F HX 104

$$

ANZ530>537-241900-
MARINE OBSERVATIONS

STATION/POSITION TIME  TEMP    WIND        PRES
                       AIR SEA DIR/SP/G
                 (UTC) (F)     (DEG/KT/KT) (MB)
THOMAS PT LIGHT  1800   85 83  360/  3/  3 1017.1F
BALT KEY BRIDGE  1748   85     120/  7/  8 1015.7F
COVE POINT       1748   86      20/  4/  6 1016.4F
LEWISETTA        1748   86 86  100/  5/  6 1015.2F
SOLOMONS ISLAND  1748   87 86   90/  5/  6   N/A
PINEY POINT      1748          180/  5/  6   N/A

$$





USA.gov is the U.S. government's official web portal to all federal, state and local government web resources and services.